Location: Bee Sting Hill Observatory
(34.8650°N, 84.3356°W)
Time: 19:31:59
(UTC-04:00)

OTV 5 (USA 277) - Visible Passes

Search period start: 18 September 2018 00:00
Search period end: 28 September 2018 00:00
Orbit: 387 x 394 km, 54.5° (Epoch: 08 September)

Date Brightness Start Highest point End Pass type
(mag) Time Alt. Az. Time Alt. Az. Time Alt. Az.
23 Sep ? 06:51:45 10° S 06:54:04 19° SE 06:56:24 10° ENE visible
25 Sep ? 06:34:07 10° SSW 06:37:09 41° SE 06:40:11 10° ENE visible
26 Sep ? 05:39:57 14° SSE 05:40:59 16° SE 05:43:02 10° E visible
27 Sep ? 06:18:55 31° SW 06:20:18 81° NW 06:23:30 10° NE visible
